2021/05/18 23:31:05+0000,-41.32,-47.59,-32.67,-50.92,-56.16,-57.67
2021/05/18 23:31:58+0000,-41.60,-46.23,-33.21,-51.23,-55.76,-57.18
2021/05/18 23:32:50+0000,-41.74,-47.23,-33.06,-51.58,-56.01,-57.19
2021/05/18 23:33:42+0000,-41.53,-47.17,-33.26,-50.39,-55.87,-56.99
2021/05/18 23:34:34+0000,-41.53,-46.12,-32.81,-50.41,-55.98,-57.27
2021/05/18 23:35:26+0000,-41.95,-47.62,-33.76,-50.27,-55.74,-56.89
2021/05/18 23:36:18+0000,-41.93,-47.19,-33.07,-50.46,-56.35,-56.93
2021/05/18 23:37:10+0000,-41.55,-48.48,-32.66,-50.65,-55.29,-57.27
2021/05/18 23:38:02+0000,-41.33,-47.16,-33.33,-49.95,-55.06,-56.21
2021/05/18 23:38:54+0000,-41.21,-46.26,-32.48,-50.58,-55.20,-56.59
2021/05/18 23:39:46+0000,-41.16,-47.87,-32.63,-51.08,-55.77,-57.27
2021/05/18 23:40:38+0000,-41.80,-46.84,-32.85,-51.44,-55.77,-56.78
2021/05/18 23:41:38+0000,-41.42,-47.04,-32.85,-50.95,-55.58,-57.04
2021/05/18 23:42:30+0000,-41.52,-47.53,-32.61,-49.03,-55.35,-57.25
2021/05/18 23:43:22+0000,-41.77,-47.63,-32.79,-49.26,-55.58,-57.55
2021/05/18 23:44:14+0000,-42.14,-47.72,-32.91,-50.03,-55.69,-57.28
2021/05/18 23:45:06+0000,-41.42,-47.55,-32.80,-50.72,-55.49,-57.47
2021/05/18 23:45:58+0000,-41.77,-48.52,-32.97,-50.33,-55.85,-57.18
2021/05/18 23:46:50+0000,-42.30,-46.93,-33.33,-51.21,-56.64,-56.71
2021/05/18 23:47:42+0000,-41.86,-46.77,-32.80,-50.65,-55.40,-56.04
2021/05/18 23:48:34+0000,-42.20,-47.78,-32.95,-50.23,-54.82,-56.19
2021/05/18 23:49:26+0000,-41.84,-47.36,-33.17,-45.92,-54.81,-56.72
2021/05/18 23:50:18+0000,-42.19,-47.41,-32.53,-51.14,-55.42,-56.72
2021/05/18 23:51:19+0000,-42.27,-46.91,-32.25,-50.20,-55.01,-57.45
2021/05/18 23:52:11+0000,-42.12,-46.77,-32.64,-50.69,-54.78,-56.81
2021/05/18 23:53:03+0000,-41.81,-46.11,-32.45,-45.38,-55.40,-56.93
2021/05/18 23:53:55+0000,-41.32,-45.83,-32.15,-45.83,-55.42,-57.04
2021/05/18 23:54:47+0000,-41.40,-46.82,-32.15,-48.30,-55.32,-57.54
2021/05/18 23:55:39+0000,-40.95,-48.40,-32.91,-50.18,-55.39,-56.98
2021/05/18 23:56:31+0000,-40.88,-46.85,-32.71,-49.34,-56.03,-57.53
2021/05/18 23:57:23+0000,-41.92,-46.70,-32.42,-49.15,-55.62,-57.20
2021/05/18 23:58:15+0000,-40.73,-48.07,-32.04,-51.30,-56.01,-57.25
2021/05/18 23:59:07+0000,-40.68,-46.99,-33.17,-50.61,-56.19,-57.29
2021/05/18 23:59:59+0000,-40.14,-47.11,-32.94,-50.64,-55.85,-57.25
2021/05/19 00:00:54+0000,-40.92,-46.46,-33.43,-50.28,-55.79,-56.80
2021/05/19 00:01:55+0000,-40.52,-46.72,-33.07,-50.42,-55.98,-57.44
2021/05/19 00:02:47+0000,-39.36,-46.39,-33.14,-51.90,-55.86,-56.84
2021/05/19 00:03:39+0000,-40.45,-47.38,-33.33,-51.72,-55.65,-57.18
2021/05/19 00:04:31+0000,-40.87,-46.13,-33.73,-49.71,-56.10,-56.88
2021/05/19 00:05:23+0000,-40.17,-46.43,-33.36,-50.77,-55.28,-57.08
2021/05/19 00:06:15+0000,-39.97,-47.05,-33.17,-51.87,-55.44,-57.63
2021/05/19 00:07:07+0000,-41.08,-47.29,-33.18,-50.13,-55.78,-57.12
2021/05/19 00:07:59+0000,-40.65,-46.16,-33.42,-45.97,-55.49,-57.01
2021/05/19 00:08:51+0000,-40.73,-47.10,-33.08,-49.86,-55.94,-57.76
2021/05/19 00:09:43+0000,-40.47,-47.24,-32.74,-50.58,-55.34,-57.23
2021/05/19 00:10:35+0000,-40.77,-47.54,-33.44,-49.50,-56.23,-56.95
2021/05/19 00:11:35+0000,-40.91,-46.57,-33.28,-50.25,-54.98,-56.35
2021/05/19 00:12:27+0000,-41.64,-46.44,-32.59,-49.65,-54.22,-56.19
2021/05/19 00:13:19+0000,-41.24,-47.40,-32.40,-50.60,-54.16,-57.49
2021/05/19 00:14:11+0000,-41.70,-47.11,-33.46,-50.93,-54.82,-57.19
2021/05/19 00:15:03+0000,-40.68,-46.51,-33.12,-50.74,-55.11,-57.00
2021/05/19 00:15:55+0000,-41.17,-46.94,-32.89,-49.86,-55.04,-57.14
2021/05/19 00:16:47+0000,-41.13,-46.60,-32.76,-49.69,-54.68,-57.14
2021/05/19 00:17:39+0000,-40.83,-47.71,-33.14,-50.42,-54.99,-57.19
2021/05/19 00:18:31+0000,-40.70,-46.51,-32.76,-49.10,-55.61,-57.63
2021/05/19 00:19:23+0000,-40.93,-45.76,-32.65,-50.81,-54.63,-57.58
2021/05/19 00:20:15+0000,-40.93,-47.17,-32.53,-50.56,-55.00,-57.26
2021/05/19 00:21:16+0000,-40.73,-47.44,-32.52,-50.89,-54.48,-57.79
2021/05/19 00:22:08+0000,-40.55,-46.27,-33.05,-49.78,-54.84,-56.32
2021/05/19 00:23:00+0000,-40.49,-45.97,-33.16,-50.31,-54.76,-56.07
2021/05/19 00:23:52+0000,-41.21,-46.95,-32.95,-50.22,-55.28,-57.71
2021/05/19 00:24:44+0000,-40.75,-46.98,-32.72,-49.98,-55.15,-57.18
2021/05/19 00:25:36+0000,-41.18,-47.68,-32.93,-50.29,-54.58,-57.74
2021/05/19 00:26:28+0000,-40.53,-46.38,-32.61,-50.64,-54.89,-57.29
2021/05/19 00:27:20+0000,-41.15,-46.07,-33.06,-50.78,-55.40,-57.39
2021/05/19 00:28:12+0000,-40.93,-46.92,-33.37,-50.69,-54.39,-56.94
2021/05/19 00:29:04+0000,-40.17,-45.17,-32.63,-51.39,-55.16,-56.98
2021/05/19 00:29:57+0000,-41.00,-46.58,-32.81,-50.49,-55.08,-56.95
2021/05/19 00:30:49+0000,-40.70,-46.90,-33.24,-51.89,-54.89,-57.72
2021/05/19 00:31:48+0000,-41.03,-46.69,-32.85,-49.93,-55.40,-56.25
2021/05/19 00:32:40+0000,-40.38,-47.07,-32.37,-51.04,-55.00,-56.27
2021/05/19 00:33:32+0000,-40.50,-46.39,-32.92,-51.58,-55.94,-57.53
2021/05/19 00:34:24+0000,-40.06,-46.80,-33.04,-51.54,-54.97,-55.87
2021/05/19 00:35:16+0000,-40.08,-46.78,-32.63,-48.91,-54.94,-55.55
2021/05/19 00:36:08+0000,-40.95,-46.50,-32.90,-49.73,-55.34,-56.80
2021/05/19 00:37:00+0000,-40.43,-46.12,-32.50,-50.12,-54.81,-56.66
2021/05/19 00:37:53+0000,-39.70,-46.77,-32.85,-49.77,-54.85,-56.39
2021/05/19 00:38:45+0000,-40.20,-47.79,-33.22,-50.14,-54.79,-56.63
2021/05/19 00:39:37+0000,-39.99,-47.91,-33.60,-50.32,-55.02,-56.26
2021/05/19 00:40:29+0000,-41.07,-46.08,-33.42,-49.83,-54.83,-57.04
2021/05/19 00:41:29+0000,-40.30,-46.58,-33.07,-49.76,-54.81,-56.54
2021/05/19 00:42:21+0000,-40.88,-47.17,-33.18,-50.98,-54.53,-56.91
2021/05/19 00:43:13+0000,-39.30,-45.34,-32.85,-50.24,-54.78,-56.25
2021/05/19 00:44:05+0000,-39.36,-46.24,-33.62,-51.52,-54.51,-55.95
2021/05/19 00:44:57+0000,-40.33,-46.13,-33.09,-49.80,-55.35,-56.19
2021/05/19 00:45:49+0000,-41.04,-45.73,-33.52,-50.82,-55.12,-56.46
2021/05/19 00:46:41+0000,-42.07,-46.52,-33.25,-50.20,-54.37,-56.55
2021/05/19 00:47:33+0000,-42.12,-44.81,-32.71,-50.83,-55.06,-56.84
2021/05/19 00:48:25+0000,-41.39,-44.83,-32.82,-49.95,-55.00,-56.39
2021/05/19 00:49:17+0000,-41.70,-47.17,-33.06,-50.77,-54.64,-56.67
2021/05/19 00:50:10+0000,-41.90,-47.19,-33.16,-48.84,-54.80,-56.47
2021/05/19 00:51:09+0000,-41.53,-47.02,-32.95,-49.74,-54.76,-56.86
2021/05/19 00:52:01+0000,-41.95,-44.56,-33.68,-50.18,-55.25,-56.31
2021/05/19 00:52:53+0000,-41.89,-47.20,-33.66,-50.26,-55.09,-56.49
2021/05/19 00:53:45+0000,-41.25,-47.17,-33.50,-50.33,-54.51,-56.32
2021/05/19 00:54:38+0000,-41.44,-47.08,-33.22,-49.56,-54.63,-56.27
2021/05/19 00:55:30+0000,-42.59,-45.12,-33.39,-51.03,-55.27,-56.31
2021/05/19 00:56:22+0000,-41.82,-47.37,-33.36,-50.42,-54.64,-56.34
2021/05/19 00:57:14+0000,-41.81,-45.92,-33.51,-48.27,-54.52,-56.46
2021/05/19 00:58:06+0000,-42.59,-44.26,-33.19,-50.62,-54.23,-55.46
2021/05/19 00:58:58+0000,-42.09,-44.31,-32.74,-49.83,-54.77,-55.68
2021/05/19 00:59:50+0000,-42.71,-45.96,-32.75,-51.25,-56.09,-56.56
2021/05/19 01:00:42+0000,-41.74,-47.73,-32.72,-48.23,-55.62,-56.75
2021/05/19 01:01:42+0000,-42.22,-47.95,-33.28,-47.22,-55.81,-56.16
2021/05/19 01:02:34+0000,-41.34,-46.71,-33.22,-49.74,-55.24,-56.55
2021/05/19 01:03:26+0000,-41.84,-46.72,-33.00,-50.25,-54.39,-56.40
2021/05/19 01:04:18+0000,-42.13,-47.90,-33.84,-51.04,-55.63,-56.82
2021/05/19 01:05:10+0000,-41.65,-46.89,-32.94,-49.27,-55.95,-56.92
2021/05/19 01:06:02+0000,-41.70,-44.05,-33.75,-50.55,-55.87,-56.63
2021/05/19 01:06:54+0000,-41.85,-44.04,-32.85,-50.64,-55.53,-56.14
2021/05/19 01:07:46+0000,-42.09,-46.83,-33.49,-49.42,-55.60,-56.28
2021/05/19 01:08:38+0000,-42.18,-47.56,-33.31,-50.49,-54.93,-56.53
2021/05/19 01:09:31+0000,-41.12,-45.28,-33.65,-50.39,-55.09,-56.20
2021/05/19 01:10:23+0000,-41.30,-44.79,-33.51,-50.65,-55.34,-56.43
2021/05/19 01:11:21+0000,-41.34,-48.22,-33.24,-48.92,-55.05,-56.04
2021/05/19 01:12:13+0000,-41.48,-47.85,-33.43,-45.44,-54.95,-55.89
2021/05/19 01:13:05+0000,-41.10,-46.80,-33.57,-49.86,-54.84,-55.37
2021/05/19 01:13:57+0000,-41.53,-43.50,-32.94,-49.91,-53.56,-56.28
2021/05/19 01:14:49+0000,-40.80,-47.45,-33.28,-49.59,-53.71,-55.95
2021/05/19 01:15:41+0000,-40.42,-45.84,-32.60,-49.84,-53.66,-55.79
2021/05/19 01:16:33+0000,-38.99,-43.96,-32.75,-49.81,-53.11,-56.43
2021/05/19 01:17:25+0000,-38.89,-44.41,-33.08,-49.52,-53.49,-56.41
2021/05/19 01:18:17+0000,-38.23,-46.71,-33.59,-49.67,-53.47,-56.62
2021/05/19 01:19:09+0000,-38.56,-46.47,-33.41,-47.54,-52.86,-56.23
2021/05/19 01:20:01+0000,-38.93,-44.45,-32.99,-49.17,-53.42,-56.62
2021/05/19 01:20:59+0000,-38.40,-46.91,-32.72,-49.25,-53.25,-56.33
2021/05/19 01:21:51+0000,-37.32,-47.31,-33.56,-50.04,-53.31,-56.46
2021/05/19 01:22:43+0000,-37.51,-46.83,-33.82,-46.61,-54.02,-56.59
2021/05/19 01:23:35+0000,-37.99,-46.89,-33.43,-48.16,-53.51,-56.03
2021/05/19 01:24:27+0000,-40.21,-43.93,-33.12,-49.35,-53.01,-56.43
2021/05/19 01:25:19+0000,-40.44,-46.82,-33.07,-50.53,-53.67,-55.49
2021/05/19 01:26:11+0000,-40.06,-46.85,-33.17,-49.09,-53.60,-55.39
2021/05/19 01:27:03+0000,-39.62,-43.57,-33.16,-49.40,-53.66,-55.29
2021/05/19 01:27:55+0000,-40.29,-45.66,-32.75,-48.98,-53.43,-56.24
2021/05/19 01:28:47+0000,-37.90,-45.48,-33.46,-48.61,-53.44,-56.08
2021/05/19 01:29:40+0000,-40.05,-47.82,-33.28,-48.26,-53.77,-56.18
2021/05/19 01:30:32+0000,-40.42,-43.44,-33.21,-50.12,-53.44,-56.40
2021/05/19 01:31:36+0000,-40.46,-46.91,-33.19,-48.63,-53.67,-56.22
2021/05/19 01:32:28+0000,-39.83,-44.27,-33.34,-49.66,-53.96,-56.40
2021/05/19 01:33:20+0000,-39.93,-45.54,-33.67,-45.03,-53.71,-56.33
2021/05/19 01:34:12+0000,-35.82,-46.36,-33.94,-44.86,-54.06,-56.33
2021/05/19 01:35:04+0000,-37.33,-43.56,-34.08,-44.44,-53.72,-55.82
2021/05/19 01:35:56+0000,-37.65,-43.68,-33.59,-43.91,-53.75,-55.39
2021/05/19 01:36:48+0000,-36.54,-46.72,-33.04,-44.18,-53.52,-55.76
2021/05/19 01:37:40+0000,-37.02,-46.19,-32.43,-43.14,-54.13,-56.21
2021/05/19 01:38:32+0000,-35.12,-43.53,-32.82,-42.63,-54.11,-56.13
2021/05/19 01:39:24+0000,-35.48,-42.52,-33.08,-42.12,-53.71,-56.43
2021/05/19 01:40:16+0000,-36.53,-46.51,-33.36,-43.18,-53.79,-56.05
2021/05/19 01:41:17+0000,-37.87,-46.61,-32.97,-43.37,-54.13,-56.55
2021/05/19 01:42:09+0000,-38.06,-45.35,-32.37,-42.92,-54.26,-56.22
2021/05/19 01:43:01+0000,-36.40,-45.62,-33.86,-43.16,-54.06,-56.44
2021/05/19 01:43:53+0000,-38.57,-50.17,-33.41,-43.59,-53.86,-56.08
2021/05/19 01:44:45+0000,-37.59,-49.61,-33.81,-43.78,-53.39,-55.75
2021/05/19 01:45:37+0000,-37.58,-48.83,-32.62,-42.54,-52.86,-55.70
2021/05/19 01:46:29+0000,-37.65,-44.99,-33.28,-42.18,-53.27,-54.81
2021/05/19 01:47:21+0000,-36.55,-49.80,-33.32,-42.09,-53.88,-56.12
2021/05/19 01:48:13+0000,-38.23,-48.77,-32.86,-42.04,-53.68,-56.50
2021/05/19 01:49:05+0000,-37.32,-49.16,-33.91,-42.22,-53.02,-56.72
2021/05/19 01:49:57+0000,-35.65,-49.04,-33.24,-40.78,-53.41,-55.74
2021/05/19 01:50:49+0000,-36.44,-48.41,-33.33,-41.08,-53.38,-55.66
2021/05/19 01:51:49+0000,-36.55,-47.87,-33.59,-42.27,-53.37,-56.32
2021/05/19 01:52:41+0000,-37.23,-48.65,-33.79,-42.22,-53.48,-56.13
2021/05/19 01:53:33+0000,-36.44,-48.53,-33.36,-42.22,-53.56,-56.02
2021/05/19 01:54:25+0000,-36.64,-48.47,-33.55,-42.33,-54.32,-55.43
2021/05/19 01:55:17+0000,-37.10,-48.54,-32.94,-42.92,-53.52,-54.90
2021/05/19 01:56:09+0000,-37.07,-48.76,-33.06,-42.30,-54.26,-54.74
2021/05/19 01:57:01+0000,-36.60,-48.62,-32.84,-42.60,-54.17,-54.52
2021/05/19 01:57:53+0000,-37.66,-49.67,-32.90,-42.49,-54.03,-55.78
2021/05/19 01:58:45+0000,-37.57,-48.77,-32.89,-42.13,-55.36,-55.28
2021/05/19 01:59:37+0000,-37.64,-48.84,-33.23,-42.08,-53.85,-55.54
2021/05/19 02:00:29+0000,-38.24,-48.49,-33.35,-42.08,-54.12,-55.34
2021/05/19 02:01:30+0000,-37.58,-47.67,-34.05,-41.81,-54.58,-54.75
2021/05/19 02:02:22+0000,-38.51,-48.62,-33.80,-42.08,-54.27,-54.87
2021/05/19 02:03:14+0000,-36.96,-47.01,-33.72,-42.17,-54.44,-54.88
2021/05/19 02:04:06+0000,-37.63,-48.36,-33.43,-42.35,-54.22,-55.23
2021/05/19 02:04:58+0000,-37.96,-47.76,-33.42,-42.16,-54.61,-55.22
2021/05/19 02:05:50+0000,-37.48,-45.65,-32.99,-42.35,-53.95,-55.46
2021/05/19 02:06:42+0000,-38.11,-45.93,-33.89,-42.92,-55.08,-55.20
2021/05/19 02:07:34+0000,-37.08,-46.65,-34.06,-43.02,-54.28,-55.02
2021/05/19 02:08:26+0000,-37.00,-46.38,-33.54,-43.02,-54.57,-55.54
2021/05/19 02:09:18+0000,-36.54,-45.53,-33.53,-42.35,-54.94,-54.30
2021/05/19 02:10:10+0000,-36.79,-45.32,-33.52,-41.76,-54.16,-54.16
2021/05/19 02:11:11+0000,-36.90,-45.24,-33.81,-42.39,-54.15,-54.96
2021/05/19 02:12:03+0000,-37.52,-45.89,-33.44,-43.40,-54.71,-55.06
2021/05/19 02:12:55+0000,-37.33,-45.76,-33.32,-41.82,-54.89,-55.36
2021/05/19 02:13:47+0000,-36.64,-46.88,-33.43,-42.62,-54.22,-55.13
2021/05/19 02:14:39+0000,-38.24,-44.86,-33.19,-43.01,-55.13,-55.03
2021/05/19 02:15:31+0000,-37.64,-45.58,-33.27,-42.50,-55.44,-54.89
2021/05/19 02:16:23+0000,-39.88,-47.22,-33.32,-43.38,-54.25,-54.03
2021/05/19 02:17:15+0000,-39.01,-46.46,-33.08,-42.45,-53.82,-54.40
2021/05/19 02:18:07+0000,-38.14,-46.36,-33.32,-42.58,-54.62,-53.93
2021/05/19 02:18:59+0000,-38.04,-46.04,-33.22,-43.07,-54.55,-53.48
2021/05/19 02:19:51+0000,-38.41,-46.43,-33.47,-42.61,-54.53,-54.41
2021/05/19 02:20:43+0000,-38.71,-46.25,-33.61,-41.81,-54.50,-54.62
2021/05/19 02:21:43+0000,-38.99,-45.28,-33.55,-41.88,-55.52,-54.37
2021/05/19 02:22:35+0000,-38.12,-43.45,-34.05,-42.53,-54.72,-54.56
2021/05/19 02:23:27+0000,-38.90,-44.68,-33.26,-41.54,-54.96,-55.13
2021/05/19 02:24:19+0000,-38.65,-47.32,-33.25,-42.84,-54.38,-54.61
2021/05/19 02:25:11+0000,-38.72,-47.36,-32.91,-42.70,-54.68,-55.01
2021/05/19 02:26:03+0000,-38.01,-43.83,-33.25,-41.95,-54.96,-54.36
2021/05/19 02:26:55+0000,-38.80,-43.83,-32.95,-42.21,-54.53,-54.85
2021/05/19 02:27:47+0000,-36.47,-46.94,-32.45,-42.21,-54.54,-54.24
2021/05/19 02:28:39+0000,-36.88,-46.32,-33.13,-42.29,-54.28,-53.84
2021/05/19 02:29:31+0000,-37.31,-44.28,-33.45,-41.58,-53.82,-54.93
2021/05/19 02:30:23+0000,-36.70,-44.27,-32.95,-41.98,-54.31,-54.87
2021/05/19 02:31:23+0000,-36.36,-45.02,-32.82,-43.27,-55.07,-54.83
2021/05/19 02:32:15+0000,-36.93,-47.85,-32.78,-42.54,-55.21,-54.86
2021/05/19 02:33:07+0000,-36.54,-48.51,-33.29,-43.15,-54.93,-54.70
2021/05/19 02:33:59+0000,-37.10,-45.20,-32.81,-43.52,-54.77,-54.62
2021/05/19 02:34:51+0000,-36.98,-48.26,-33.50,-42.71,-54.65,-54.64
2021/05/19 02:35:43+0000,-37.25,-46.80,-33.69,-42.28,-54.16,-53.51
2021/05/19 02:36:35+0000,-36.64,-47.94,-32.67,-42.67,-55.04,-54.66
2021/05/19 02:37:27+0000,-36.69,-47.05,-32.99,-42.36,-54.53,-54.96
2021/05/19 02:38:19+0000,-36.96,-48.69,-32.80,-42.97,-54.15,-55.26
2021/05/19 02:39:11+0000,-36.24,-47.48,-32.53,-40.13,-54.78,-55.23
2021/05/19 02:40:03+0000,-37.28,-43.91,-32.60,-42.55,-55.09,-54.79
2021/05/19 02:41:03+0000,-36.07,-44.70,-33.34,-41.72,-54.68,-55.16
2021/05/19 02:41:55+0000,-36.60,-43.97,-33.19,-42.25,-55.19,-56.23
2021/05/19 02:42:47+0000,-36.91,-46.36,-32.97,-40.75,-54.51,-56.06
2021/05/19 02:43:39+0000,-37.04,-47.24,-32.61,-40.39,-54.36,-55.68
2021/05/19 02:44:31+0000,-37.03,-46.44,-32.75,-42.75,-54.88,-55.90
2021/05/19 02:45:23+0000,-35.92,-47.81,-32.33,-43.03,-54.45,-55.21
2021/05/19 02:46:15+0000,-36.61,-47.48,-32.64,-41.04,-54.62,-55.41
2021/05/19 02:47:07+0000,-36.34,-48.62,-32.47,-41.75,-54.05,-54.96
2021/05/19 02:47:59+0000,-37.69,-46.89,-32.99,-43.56,-54.43,-55.82
2021/05/19 02:48:52+0000,-37.43,-48.36,-32.44,-42.72,-54.30,-55.79
2021/05/19 02:49:44+0000,-36.56,-47.59,-33.08,-42.14,-54.61,-55.98
2021/05/19 02:50:36+0000,-36.87,-46.81,-32.69,-42.79,-54.58,-55.72
2021/05/19 02:51:36+0000,-37.44,-47.87,-33.06,-43.48,-55.04,-56.21
2021/05/19 02:52:28+0000,-38.16,-47.86,-32.61,-41.51,-54.97,-55.69
2021/05/19 02:53:20+0000,-36.97,-47.20,-32.79,-43.13,-54.69,-55.75
2021/05/19 02:54:12+0000,-37.19,-47.59,-33.06,-42.08,-54.50,-56.09
2021/05/19 02:55:04+0000,-37.11,-42.90,-32.77,-42.47,-54.20,-55.86
2021/05/19 02:55:56+0000,-37.01,-43.00,-32.62,-42.67,-54.95,-55.77
2021/05/19 02:56:48+0000,-36.53,-44.15,-33.35,-40.88,-54.58,-56.13
2021/05/19 02:57:40+0000,-38.51,-45.06,-32.88,-41.91,-54.15,-55.33
2021/05/19 02:58:32+0000,-37.58,-42.82,-33.08,-42.97,-54.63,-55.32
2021/05/19 02:59:24+0000,-37.22,-43.17,-32.23,-43.12,-54.72,-48.36
2021/05/19 03:00:16+0000,-36.96,-44.69,-32.59,-41.60,-55.39,-55.98
2021/05/19 03:01:17+0000,-37.38,-44.80,-31.89,-42.61,-54.83,-55.53
2021/05/19 03:02:09+0000,-36.58,-45.95,-33.41,-41.50,-55.00,-56.07
2021/05/19 03:03:01+0000,-36.75,-42.87,-32.76,-40.12,-55.06,-55.81
2021/05/19 03:03:53+0000,-36.89,-42.67,-32.86,-42.62,-54.57,-56.57
2021/05/19 03:04:45+0000,-37.22,-45.42,-32.87,-41.91,-54.90,-55.85
2021/05/19 03:05:37+0000,-36.99,-46.22,-32.71,-41.25,-54.88,-56.02
2021/05/19 03:06:29+0000,-37.43,-45.64,-32.85,-42.85,-55.43,-56.29
2021/05/19 03:07:21+0000,-37.50,-46.55,-32.33,-42.45,-55.10,-56.33
2021/05/19 03:08:13+0000,-37.84,-45.84,-32.58,-41.97,-55.00,-56.26
2021/05/19 03:09:05+0000,-37.19,-45.94,-32.99,-42.16,-54.51,-56.61
2021/05/19 03:09:57+0000,-37.66,-42.85,-32.75,-41.71,-55.09,-55.96
2021/05/19 03:10:49+0000,-36.68,-43.78,-33.15,-43.52,-54.53,-55.84
2021/05/19 03:11:50+0000,-38.15,-45.35,-33.04,-43.45,-55.14,-56.40
2021/05/19 03:12:42+0000,-36.97,-44.22,-33.17,-41.75,-55.01,-56.24
2021/05/19 03:13:34+0000,-38.26,-45.00,-32.56,-42.13,-55.16,-56.23
2021/05/19 03:14:26+0000,-37.32,-43.37,-32.63,-42.00,-54.84,-55.91
2021/05/19 03:15:18+0000,-36.19,-43.42,-32.77,-43.18,-54.68,-56.74
2021/05/19 03:16:10+0000,-36.34,-44.19,-32.79,-42.09,-54.51,-56.08
2021/05/19 03:17:02+0000,-37.22,-45.07,-33.66,-41.25,-54.69,-56.56
2021/05/19 03:17:54+0000,-37.64,-45.02,-33.10,-41.94,-54.73,-55.59
2021/05/19 03:18:46+0000,-37.45,-44.93,-32.99,-42.00,-55.12,-55.79
2021/05/19 03:19:38+0000,-36.82,-45.09,-32.91,-42.37,-55.13,-56.34
2021/05/19 03:20:30+0000,-37.04,-45.04,-32.65,-42.43,-54.55,-56.24
2021/05/19 03:21:31+0000,-37.23,-45.04,-32.85,-43.12,-55.44,-56.34
2021/05/19 03:22:23+0000,-37.26,-46.14,-33.23,-42.56,-55.35,-56.44
2021/05/19 03:23:15+0000,-36.59,-42.65,-32.64,-41.46,-54.80,-56.29
2021/05/19 03:24:07+0000,-36.77,-47.14,-33.02,-42.75,-55.14,-56.32
2021/05/19 03:24:59+0000,-37.19,-44.55,-32.79,-42.80,-55.20,-55.85
2021/05/19 03:25:51+0000,-37.30,-45.98,-32.93,-42.31,-55.42,-56.16
2021/05/19 03:26:43+0000,-36.52,-45.83,-33.24,-41.85,-54.42,-55.92
2021/05/19 03:27:35+0000,-35.29,-44.52,-32.34,-43.65,-55.04,-55.76
2021/05/19 03:28:27+0000,-38.13,-45.82,-33.60,-42.37,-55.10,-56.13
2021/05/19 03:29:19+0000,-36.36,-44.81,-33.12,-43.36,-54.98,-55.87
2021/05/19 03:30:11+0000,-37.80,-44.29,-32.96,-41.62,-55.11,-56.10
2021/05/19 03:31:11+0000,-38.76,-46.02,-32.78,-41.94,-54.64,-55.56
2021/05/19 03:32:03+0000,-39.05,-45.94,-33.53,-42.51,-55.51,-56.02
2021/05/19 03:32:55+0000,-35.42,-45.12,-33.30,-42.24,-55.16,-56.29
2021/05/19 03:33:47+0000,-37.69,-45.31,-33.46,-40.69,-55.00,-56.68
2021/05/19 03:34:39+0000,-37.13,-45.19,-33.05,-39.85,-54.85,-56.35
2021/05/19 03:35:31+0000,-37.00,-44.48,-32.48,-43.35,-54.49,-56.43
2021/05/19 03:36:23+0000,-36.37,-43.79,-33.34,-42.86,-54.50,-56.29
2021/05/19 03:37:15+0000,-36.79,-42.65,-33.23,-42.44,-54.80,-56.47
2021/05/19 03:38:07+0000,-34.34,-45.98,-32.29,-42.01,-55.08,-56.23
2021/05/19 03:38:59+0000,-37.09,-42.10,-32.99,-42.05,-54.87,-56.28
2021/05/19 03:39:52+0000,-38.01,-45.97,-33.35,-41.71,-54.87,-56.49
2021/05/19 03:40:44+0000,-36.62,-45.95,-32.98,-42.10,-54.85,-56.73
2021/05/19 03:41:43+0000,-37.12,-44.40,-33.35,-42.67,-55.11,-55.38
2021/05/19 03:42:35+0000,-36.71,-42.71,-32.88,-43.38,-55.21,-56.29
2021/05/19 03:43:27+0000,-36.37,-43.65,-33.90,-42.00,-55.37,-56.34
2021/05/19 03:44:19+0000,-36.52,-44.86,-33.10,-43.42,-55.54,-55.90
2021/05/19 03:45:11+0000,-36.12,-45.61,-32.46,-39.96,-55.74,-54.63
2021/05/19 03:46:03+0000,-35.09,-42.67,-32.47,-40.39,-55.12,-54.91
2021/05/19 03:46:55+0000,-35.75,-44.22,-33.00,-41.99,-55.01,-55.29
2021/05/19 03:47:47+0000,-37.59,-45.28,-33.19,-42.41,-54.80,-55.00
2021/05/19 03:48:39+0000,-37.36,-43.82,-32.11,-40.95,-54.18,-54.69
2021/05/19 03:49:31+0000,-36.69,-42.91,-33.04,-42.16,-54.73,-55.11
2021/05/19 03:50:24+0000,-36.69,-44.74,-32.54,-41.11,-54.81,-54.80
2021/05/19 03:51:23+0000,-36.22,-45.90,-33.14,-41.83,-54.30,-55.03
2021/05/19 03:52:15+0000,-36.04,-44.88,-33.06,-40.45,-54.63,-54.23
2021/05/19 03:53:08+0000,-36.83,-46.91,-31.86,-40.99,-54.82,-54.08
2021/05/19 03:54:00+0000,-36.49,-43.36,-33.16,-42.18,-54.92,-54.52
2021/05/19 03:54:52+0000,-36.37,-45.05,-33.08,-41.72,-54.35,-54.60
2021/05/19 03:55:44+0000,-35.63,-43.40,-33.40,-41.81,-54.49,-55.15
2021/05/19 03:56:36+0000,-35.36,-44.63,-32.59,-43.05,-54.47,-55.49
2021/05/19 03:57:28+0000,-33.37,-45.41,-33.53,-41.78,-54.93,-55.14
2021/05/19 03:58:20+0000,-33.96,-45.13,-32.95,-42.98,-55.06,-54.62
2021/05/19 03:59:12+0000,-33.67,-43.30,-32.74,-41.78,-54.69,-55.16
2021/05/19 04:00:04+0000,-34.09,-43.35,-32.97,-41.02,-54.41,-54.76
2021/05/19 04:01:05+0000,-35.00,-44.20,-32.58,-42.85,-54.59,-54.36
2021/05/19 04:01:57+0000,-33.80,-43.95,-32.90,-41.96,-54.50,-55.01
2021/05/19 04:02:49+0000,-34.44,-44.01,-33.19,-42.62,-54.80,-54.15
2021/05/19 04:03:41+0000,-34.96,-43.97,-32.82,-42.64,-54.48,-53.74
2021/05/19 04:04:33+0000,-34.22,-44.78,-33.39,-43.25,-55.27,-54.64
2021/05/19 04:05:25+0000,-32.72,-44.73,-33.16,-42.41,-55.28,-54.50
2021/05/19 04:06:17+0000,-33.25,-41.44,-33.03,-41.82,-55.14,-54.80
2021/05/19 04:07:09+0000,-33.40,-42.79,-32.23,-38.55,-54.54,-54.19
2021/05/19 04:08:01+0000,-35.35,-43.71,-32.93,-39.34,-54.81,-54.84
2021/05/19 04:08:53+0000,-35.41,-44.51,-32.46,-42.17,-54.48,-54.59
2021/05/19 04:09:45+0000,-37.54,-43.81,-32.22,-41.05,-55.04,-54.54
2021/05/19 04:10:37+0000,-36.49,-45.58,-32.63,-41.69,-54.23,-54.60
2021/05/19 04:11:37+0000,-37.46,-43.34,-33.31,-42.41,-54.27,-55.02
2021/05/19 04:12:29+0000,-37.84,-44.16,-32.41,-40.35,-54.00,-55.45
2021/05/19 04:13:21+0000,-36.64,-45.81,-32.78,-40.10,-53.87,-54.63
2021/05/19 04:14:13+0000,-37.44,-42.97,-32.89,-41.78,-54.13,-54.68
2021/05/19 04:15:05+0000,-36.57,-44.80,-32.86,-41.33,-54.33,-54.84
2021/05/19 04:15:57+0000,-36.99,-43.91,-33.10,-38.36,-54.48,-54.90
2021/05/19 04:16:49+0000,-38.06,-45.02,-32.76,-42.70,-54.33,-55.06
2021/05/19 04:17:41+0000,-37.59,-43.62,-33.38,-41.36,-53.51,-54.84
2021/05/19 04:18:33+0000,-37.56,-41.13,-32.87,-42.17,-53.89,-54.91
2021/05/19 04:19:25+0000,-35.94,-42.03,-33.63,-36.81,-53.86,-53.98
2021/05/19 04:20:17+0000,-35.94,-44.54,-33.42,-47.51,-53.78,-54.58
2021/05/19 04:21:17+0000,-37.71,-44.61,-33.41,-48.55,-54.38,-55.36
2021/05/19 04:22:09+0000,-38.24,-45.45,-32.99,-48.16,-53.85,-54.69
2021/05/19 04:23:01+0000,-40.12,-45.31,-33.70,-39.04,-53.68,-55.05
2021/05/19 04:23:53+0000,-38.53,-45.13,-32.74,-45.09,-53.68,-53.65
2021/05/19 04:24:45+0000,-39.91,-44.13,-33.32,-47.04,-53.25,-54.61
2021/05/19 04:25:37+0000,-40.28,-42.96,-33.20,-47.71,-53.79,-54.65
2021/05/19 04:26:29+0000,-38.89,-45.93,-32.84,-42.07,-53.99,-55.08
2021/05/19 04:27:21+0000,-37.46,-45.90,-33.42,-46.87,-54.06,-54.89
2021/05/19 04:28:13+0000,-38.64,-41.58,-33.23,-47.61,-53.99,-55.12
2021/05/19 04:29:05+0000,-39.21,-46.57,-33.28,-47.19,-52.72,-55.42
2021/05/19 04:29:58+0000,-37.97,-45.52,-33.05,-44.48,-53.29,-55.04
2021/05/19 04:30:50+0000,-37.78,-44.16,-33.25,-48.96,-53.63,-55.09
2021/05/19 04:31:49+0000,-38.89,-42.92,-33.52,-49.09,-55.23,-55.86
2021/05/19 04:32:41+0000,-38.90,-43.96,-32.95,-46.56,-54.73,-55.87
2021/05/19 04:33:33+0000,-39.79,-44.50,-33.15,-49.10,-54.83,-54.98
2021/05/19 04:34:25+0000,-37.92,-46.09,-33.50,-44.40,-54.23,-54.76
2021/05/19 04:35:17+0000,-37.24,-43.95,-34.03,-48.90,-54.36,-55.70
2021/05/19 04:36:09+0000,-38.47,-43.73,-33.91,-47.97,-54.82,-55.94
2021/05/19 04:37:02+0000,-39.57,-43.28,-32.83,-46.03,-54.07,-55.95
2021/05/19 04:37:54+0000,-38.34,-44.27,-33.41,-45.06,-54.39,-56.54
2021/05/19 04:38:46+0000,-40.43,-45.15,-34.13,-48.53,-54.59,-56.25
2021/05/19 04:39:38+0000,-38.43,-44.99,-33.18,-49.07,-54.64,-55.97
2021/05/19 04:40:30+0000,-38.33,-41.35,-33.41,-43.56,-55.35,-55.62
2021/05/19 04:41:29+0000,-37.44,-41.13,-33.70,-44.86,-54.17,-55.08
2021/05/19 04:42:21+0000,-35.34,-46.18,-34.15,-47.20,-54.87,-54.63
2021/05/19 04:43:13+0000,-40.05,-44.36,-33.84,-48.76,-55.18,-55.92
2021/05/19 04:44:05+0000,-38.57,-46.83,-33.36,-49.02,-55.56,-56.15
2021/05/19 04:44:57+0000,-35.95,-45.14,-34.38,-46.74,-54.63,-55.53